{"data":{"norad_id":69080,"intl_designator":"2026-104H","name":"QIANFAN-134","alt_names":[],"object_type":"PAYLOAD","status":"ACTIVE","operator":null,"country":"PRC","launch_date":"2026-05-12","launch_site_code":"TAISC","launch_vehicle":null,"mission":null,"orbit_class":"UNKNOWN","rcs_meters":null,"size_class":null,"mass_kg":null,"dimensions":null,"purposes":[],"wikipedia_slug":null,"has_3d_model":false,"image_url":null,"decayed_at":null,"tle_current":{"epoch":"2026-09-20T04:52:28.267680Z","epoch_age_seconds":48912,"freshness":"FRESH","line1":"1 69080U 26104H   26263.20310495  .00000057  00000+0  69019-4 0  9999","line2":"2 69080  88.9908 331.8021 0002218 111.9872 248.1515 13.51029210 17971","mean_motion":13.5102921,"eccentricity":0.0002218,"inclination_deg":88.9908,"raan_deg":331.8021,"arg_perigee_deg":111.9872,"mean_anomaly_deg":248.1515,"bstar":6.9019e-5,"rev_number":1797,"period_min":106.58540831993,"perigee_km":1066.8225916956,"apogee_km":1070.1259084461,"semimajor_km":7446.6112500708,"source":"CELESTRAK","updated_at":"2026-09-20T09:00:24.670791Z"}}}